Stündliche Wetter Otradne

Heute, 11 April, Sonntag

Zeit Temperatur Niederschläge Wind Luftdruck Luftfeuchtigkeit
00:00 +6°C° 0 mm 2 m/S 762 mmHg 52%
01:00 +4°C° 0 mm 3 m/S 762 mmHg 53%
02:00 +4°C° 0 mm 3 m/S 762 mmHg 53%
03:00 +4°C° 0 mm 3 m/S 763 mmHg 54%
04:00 +3°C° 0 mm 3 m/S 763 mmHg 55%
05:00 +3°C° 0 mm 3 m/S 763 mmHg 56%
06:00 +5°C° 0 mm 4 m/S 763 mmHg 53%
07:00 +7°C° 0 mm 4 m/S 763 mmHg 50%
08:00 +8°C° 0 mm 5 m/S 763 mmHg 47%
09:00 +10°C° 0 mm 5 m/S 763 mmHg 44%
10:00 +11°C° 0 mm 6 m/S 763 mmHg 40%
11:00 +14°C° 0 mm 6 m/S 762 mmHg 37%
12:00 +14°C° 0 mm 6 m/S 762 mmHg 36%
13:00 +15°C° 0 mm 6 m/S 762 mmHg 35%
14:00 +15°C° 0 mm 6 m/S 761 mmHg 34%
15:00 +15°C° 0 mm 6 m/S 761 mmHg 36%
16:00 +15°C° 0 mm 6 m/S 761 mmHg 38%
17:00 +14°C° 0 mm 5 m/S 761 mmHg 40%
18:00 +13°C° 0 mm 5 m/S 761 mmHg 44%
19:00 +11°C° 0 mm 4 m/S 761 mmHg 48%
20:00 +10°C° 0 mm 3 m/S 761 mmHg 53%
21:00 +8°C° 0 mm 4 m/S 761 mmHg 54%
22:00 +8°C° 0 mm 4 m/S 761 mmHg 56%
23:00 +7°C° 0 mm 4 m/S 761 mmHg 57%

Morgen, 12 April, Montag

Zeit Temperatur Niederschläge Wind Luftdruck Luftfeuchtigkeit
00:00 +7°C° 0 mm 4 m/S 760 mmHg 58%
01:00 +7°C° 0 mm 4 m/S 760 mmHg 59%
02:00 +7°C° 0 mm 4 m/S 760 mmHg 61%
03:00 +7°C° 0 mm 4 m/S 760 mmHg 61%
04:00 +7°C° 0 mm 4 m/S 759 mmHg 62%
05:00 +7°C° 0 mm 4 m/S 759 mmHg 62%
06:00 +7°C° 0 mm 4 m/S 759 mmHg 63%
07:00 +8°C° 0 mm 3 m/S 759 mmHg 64%
08:00 +9°C° 0 mm 3 m/S 759 mmHg 65%
09:00 +9°C° 0 mm 3 m/S 759 mmHg 66%
10:00 +9°C° 0 mm 3 m/S 759 mmHg 66%
11:00 +10°C° 0 mm 3 m/S 759 mmHg 67%
12:00 +12°C° 0 mm 2 m/S 758 mmHg 65%
13:00 +13°C° 0 mm 2 m/S 758 mmHg 64%
14:00 +14°C° 0 mm 1 m/S 758 mmHg 63%
15:00 +13°C° 0 mm 1 m/S 758 mmHg 66%
16:00 +13°C° 0 mm 1 m/S 758 mmHg 70%
17:00 +13°C° 0 mm 1 m/S 758 mmHg 74%
18:00 +12°C° 0.1 mm 1 m/S 758 mmHg 76%
19:00 +12°C° 0.1 mm 1 m/S 758 mmHg 79%
20:00 +12°C° 0.1 mm 2 m/S 758 mmHg 81%
21:00 +10°C° 0 mm 2 m/S 758 mmHg 82%
22:00 +10°C° 0 mm 2 m/S 758 mmHg 82%
23:00 +10°C° 0 mm 2 m/S 757 mmHg 83%

übermorgen, 13 April, Dienstag

Zeit Temperatur Niederschläge Wind Luftdruck Luftfeuchtigkeit
00:00 +10°C° 0 mm 2 m/S 757 mmHg 82%
01:00 +10°C° 0 mm 2 m/S 757 mmHg 82%
02:00 +9°C° 0 mm 2 m/S 757 mmHg 81%
03:00 +9°C° 0 mm 2 m/S 757 mmHg 81%
04:00 +9°C° 0 mm 2 m/S 757 mmHg 82%
05:00 +9°C° 0 mm 2 m/S 757 mmHg 82%
06:00 +9°C° 0 mm 3 m/S 758 mmHg 79%
07:00 +10°C° 0 mm 3 m/S 758 mmHg 76%
08:00 +11°C° 0 mm 3 m/S 758 mmHg 73%
09:00 +12°C° 0 mm 4 m/S 758 mmHg 69%
10:00 +13°C° 0 mm 4 m/S 758 mmHg 65%
11:00 +14°C° 0 mm 5 m/S 757 mmHg 61%
12:00 +14°C° 0 mm 4 m/S 757 mmHg 61%
13:00 +14°C° 0 mm 4 m/S 757 mmHg 62%
14:00 +14°C° 0 mm 4 m/S 757 mmHg 62%
15:00 +13°C° 0 mm 4 m/S 757 mmHg 63%
16:00 +13°C° 0 mm 3 m/S 757 mmHg 65%
17:00 +13°C° 0 mm 3 m/S 757 mmHg 66%
18:00 +12°C° 0 mm 3 m/S 757 mmHg 69%
19:00 +12°C° 0 mm 2 m/S 757 mmHg 72%
20:00 +10°C° 0 mm 2 m/S 757 mmHg 76%
21:00 +10°C° 0 mm 2 m/S 757 mmHg 78%
22:00 +9°C° 0 mm 2 m/S 757 mmHg 80%
23:00 +9°C° 0 mm 2 m/S 757 mmHg 82%

14 April, Mittwoch

Zeit Temperatur Niederschläge Wind Luftdruck Luftfeuchtigkeit
00:00 +8°C° 0 mm 2 m/S 757 mmHg 84%
01:00 +8°C° 0 mm 2 m/S 757 mmHg 85%
02:00 +8°C° 0 mm 2 m/S 757 mmHg 87%
03:00 +8°C° 0 mm 2 m/S 756 mmHg 88%
04:00 +8°C° 0 mm 2 m/S 756 mmHg 88%
05:00 +9°C° 0 mm 1 m/S 756 mmHg 89%
06:00 +8°C° 0 mm 2 m/S 756 mmHg 86%
07:00 +9°C° 0 mm 2 m/S 756 mmHg 84%
08:00 +9°C° 0 mm 2 m/S 756 mmHg 81%
09:00 +10°C° 0 mm 2 m/S 756 mmHg 75%
10:00 +12°C° 0 mm 2 m/S 756 mmHg 69%
11:00 +12°C° 0 mm 3 m/S 756 mmHg 63%
12:00 +13°C° 0.1 mm 3 m/S 755 mmHg 59%
13:00 +14°C° 0.1 mm 3 m/S 755 mmHg 55%
14:00 +16°C° 0.1 mm 3 m/S 755 mmHg 51%
15:00 +14°C° 0 mm 3 m/S 755 mmHg 54%
16:00 +15°C° 0 mm 2 m/S 754 mmHg 57%
17:00 +14°C° 0 mm 1 m/S 754 mmHg 60%
18:00 +14°C° 0 mm 2 m/S 754 mmHg 63%
19:00 +13°C° 0 mm 2 m/S 754 mmHg 66%
20:00 +12°C° 0 mm 2 m/S 754 mmHg 69%
21:00 +12°C° 0 mm 2 m/S 754 mmHg 73%
22:00 +10°C° 0 mm 3 m/S 754 mmHg 77%
23:00 +10°C° 0 mm 3 m/S 754 mmHg 81%

15 April, Donnerstag

Zeit Temperatur Niederschläge Wind Luftdruck Luftfeuchtigkeit
00:00 +9°C° 0 mm 3 m/S 753 mmHg 82%
01:00 +9°C° 0 mm 2 m/S 753 mmHg 83%
02:00 +9°C° 0 mm 2 m/S 753 mmHg 84%
03:00 +8°C° 0 mm 2 m/S 753 mmHg 86%
04:00 +8°C° 0 mm 2 m/S 753 mmHg 87%
05:00 +7°C° 0 mm 2 m/S 753 mmHg 89%
06:00 +8°C° 0 mm 2 m/S 753 mmHg 84%
07:00 +9°C° 0 mm 3 m/S 753 mmHg 78%
08:00 +10°C° 0 mm 3 m/S 753 mmHg 73%
09:00 +12°C° 0 mm 3 m/S 753 mmHg 69%
10:00 +13°C° 0 mm 3 m/S 753 mmHg 65%
11:00 +14°C° 0 mm 3 m/S 752 mmHg 60%
12:00 +13°C° 0.1 mm 3 m/S 752 mmHg 64%
13:00 +13°C° 0.1 mm 3 m/S 752 mmHg 67%
14:00 +13°C° 0.1 mm 3 m/S 752 mmHg 70%
15:00 +12°C° 0.6 mm 3 m/S 752 mmHg 76%
16:00 +11°C° 0.6 mm 3 m/S 751 mmHg 82%
17:00 +10°C° 0.6 mm 3 m/S 751 mmHg 88%
18:00 +10°C° 1.2 mm 3 m/S 751 mmHg 90%
19:00 +9°C° 1.2 mm 3 m/S 751 mmHg 92%
20:00 +9°C° 1.2 mm 3 m/S 751 mmHg 93%
21:00 +9°C° 0.8 mm 3 m/S 751 mmHg 94%
22:00 +9°C° 0.8 mm 3 m/S 751 mmHg 94%
23:00 +7°C° 0.8 mm 4 m/S 751 mmHg 95%

16 April, Freitag

Zeit Temperatur Niederschläge Wind Luftdruck Luftfeuchtigkeit
00:00 +7°C° 0.6 mm 4 m/S 750 mmHg 95%
01:00 +7°C° 0.6 mm 4 m/S 750 mmHg 95%
02:00 +7°C° 0.6 mm 4 m/S 750 mmHg 95%
03:00 +7°C° 0.6 mm 4 m/S 749 mmHg 95%
04:00 +7°C° 0.6 mm 4 m/S 749 mmHg 96%
05:00 +7°C° 0.6 mm 4 m/S 749 mmHg 96%
06:00 +7°C° 1.1 mm 4 m/S 749 mmHg 96%
07:00 +7°C° 1.1 mm 4 m/S 749 mmHg 96%
08:00 +7°C° 1.1 mm 4 m/S 749 mmHg 96%
09:00 +7°C° 1.4 mm 5 m/S 749 mmHg 95%
10:00 +7°C° 1.4 mm 6 m/S 749 mmHg 95%
11:00 +5°C° 1.4 mm 7 m/S 750 mmHg 94%
12:00 +5°C° 1.9 mm 7 m/S 750 mmHg 93%
13:00 +5°C° 1.9 mm 6 m/S 750 mmHg 92%
14:00 +5°C° 1.9 mm 6 m/S 750 mmHg 90%
15:00 +5°C° 1.2 mm 6 m/S 751 mmHg 90%
16:00 +4°C° 1.2 mm 6 m/S 751 mmHg 90%
17:00 +5°C° 1.2 mm 5 m/S 751 mmHg 90%
18:00 +5°C° 0.3 mm 5 m/S 752 mmHg 90%
19:00 +5°C° 0.3 mm 5 m/S 752 mmHg 90%
20:00 +6°C° 0.3 mm 5 m/S 752 mmHg 90%
21:00 +5°C° 0.1 mm 5 m/S 753 mmHg 90%
22:00 +5°C° 0.1 mm 4 m/S 753 mmHg 90%
23:00 +5°C° 0.1 mm 4 m/S 753 mmHg 90%
Mehr zeigen

Wir brauchen deine Erlaubnis

Meteoprog und unser Service Anbieter werden persönliche Daten aufbewahren, so wie Cookies, Geräte Bezeichnung oder ähnliche Technologien von deinem Gerät und Prozess, so wie Persönliche Daten Inhalte und Werbungen, genauso wie social Media und den Verkehr zu analysieren.

  • Aufbewahrung und/oder Zugang zu deiner Geräte Informationen.

    Cookies, Geräte Bezeichnung oder andere Informationen, können aufbewahrt oder Zugang zu deinem Gerät erhalten, für den Grund, der oben angegeben wird.

  • Personalisierte Werbung und Inhalte, Messungen, Einblick in das Publikum und Produkt Entwicklung.

    Werbungen und Inhalte können personalisiert werden, basierend auf ein Profil. Mehr Daten können besser personalisierte Werbungen und Inhalte hinzufügen. Werbung und Inhalte können gezeigt und gemessen werden. Einblicke über das Publikum, welche die Werbung gesehen haben und den Inhalt, können abgeleitet werden. So wie Daten können genutzt werden, um es zu verbessern oder die Benutzer Erfahrung zu verbessern das System und die Software.

Wenn du “Ich stimme zu” klickst, erlaubst du uns, die Cookies zu benutzen die Geräte Bezeichnung, den Web oder ähnliche Technologien zu benutzen. Deine Settings, können in deinem Gerät bei deinem Browser geändert werden.

Für den bestimmten Zweck, berechtigten Interessen beruhen darauf, mehr als auf den Inhalt. Du kannst mehr darüber in unseren Privaten und Cookie Politik lesen.